Hourly Weather Bremen

Today, 2 August, Monday

Time Temperature Precipitation Wind Pressure Humidity
00:00 +11°C° 0 mm 3 mps 756 mmHg 94%
01:00 +11°C° 0 mm 3 mps 756 mmHg 94%
02:00 +10°C° 0 mm 3 mps 756 mmHg 94%
03:00 +10°C° 0 mm 3 mps 756 mmHg 94%
04:00 +10°C° 0 mm 3 mps 756 mmHg 94%
05:00 +11°C° 0 mm 4 mps 757 mmHg 92%
06:00 +12°C° 0 mm 4 mps 757 mmHg 89%
07:00 +13°C° 0 mm 4 mps 757 mmHg 86%
08:00 +14°C° 0.1 mm 5 mps 757 mmHg 81%
09:00 +16°C° 0.1 mm 6 mps 757 mmHg 75%
10:00 +17°C° 0.1 mm 6 mps 758 mmHg 70%
11:00 +17°C° 0.4 mm 6 mps 758 mmHg 72%
12:00 +17°C° 0.4 mm 5 mps 758 mmHg 74%
13:00 +17°C° 0.4 mm 5 mps 758 mmHg 77%
14:00 +17°C° 0.2 mm 5 mps 758 mmHg 76%
15:00 +18°C° 0.2 mm 4 mps 758 mmHg 75%
16:00 +18°C° 0.2 mm 4 mps 758 mmHg 74%
17:00 +18°C° 0.1 mm 4 mps 758 mmHg 77%
18:00 +17°C° 0.1 mm 3 mps 759 mmHg 81%
19:00 +16°C° 0.1 mm 2 mps 759 mmHg 84%
20:00 +15°C° 0 mm 2 mps 759 mmHg 86%
21:00 +14°C° 0 mm 2 mps 759 mmHg 89%
22:00 +13°C° 0 mm 1 mps 759 mmHg 92%
23:00 +13°C° 0 mm 1 mps 760 mmHg 92%

Tomorrow, 3 August, Tuesday

Time Temperature Precipitation Wind Pressure Humidity
00:00 +12°C° 0 mm 1 mps 760 mmHg 92%
01:00 +12°C° 0 mm 1 mps 760 mmHg 92%
02:00 +12°C° 0 mm 1 mps 760 mmHg 92%
03:00 +11°C° 0 mm 1 mps 759 mmHg 92%
04:00 +11°C° 0 mm 1 mps 759 mmHg 92%
05:00 +12°C° 0 mm 1 mps 759 mmHg 90%
06:00 +12°C° 0 mm 0 mps 759 mmHg 87%
07:00 +13°C° 0 mm 0 mps 760 mmHg 85%
08:00 +15°C° 0 mm 0 mps 759 mmHg 78%
09:00 +16°C° 0 mm 0 mps 759 mmHg 71%
10:00 +18°C° 0 mm 0 mps 759 mmHg 65%
11:00 +20°C° 0 mm 1 mps 759 mmHg 63%
12:00 +20°C° 0 mm 1 mps 759 mmHg 62%
13:00 +21°C° 0 mm 1 mps 759 mmHg 60%
14:00 +20°C° 0.1 mm 1 mps 759 mmHg 65%
15:00 +19°C° 0.1 mm 1 mps 759 mmHg 69%
16:00 +19°C° 0.1 mm 1 mps 759 mmHg 73%
17:00 +18°C° 0 mm 1 mps 759 mmHg 76%
18:00 +17°C° 0 mm 2 mps 759 mmHg 78%
19:00 +16°C° 0 mm 2 mps 759 mmHg 80%
20:00 +16°C° 0 mm 2 mps 759 mmHg 81%
21:00 +15°C° 0 mm 2 mps 759 mmHg 82%
22:00 +14°C° 0 mm 2 mps 759 mmHg 83%
23:00 +14°C° 0 mm 2 mps 759 mmHg 82%

Day after tomorrow, 4 August, Wednesday

Time Temperature Precipitation Wind Pressure Humidity
00:00 +14°C° 0 mm 2 mps 759 mmHg 81%
01:00 +14°C° 0 mm 2 mps 759 mmHg 80%
02:00 +14°C° 0 mm 2 mps 759 mmHg 80%
03:00 +14°C° 0 mm 2 mps 759 mmHg 81%
04:00 +13°C° 0 mm 2 mps 759 mmHg 81%
05:00 +14°C° 0 mm 2 mps 759 mmHg 80%
06:00 +14°C° 0 mm 2 mps 759 mmHg 80%
07:00 +15°C° 0 mm 2 mps 759 mmHg 79%
08:00 +16°C° 0 mm 2 mps 759 mmHg 75%
09:00 +17°C° 0 mm 2 mps 759 mmHg 71%
10:00 +19°C° 0 mm 3 mps 759 mmHg 67%
11:00 +19°C° 0 mm 2 mps 759 mmHg 67%
12:00 +20°C° 0 mm 2 mps 759 mmHg 66%
13:00 +21°C° 0 mm 1 mps 759 mmHg 66%
14:00 +19°C° 0.5 mm 2 mps 759 mmHg 73%
15:00 +18°C° 0.5 mm 2 mps 758 mmHg 80%
16:00 +17°C° 0.5 mm 2 mps 758 mmHg 88%
17:00 +17°C° 0.2 mm 2 mps 758 mmHg 88%
18:00 +17°C° 0.2 mm 2 mps 758 mmHg 89%
19:00 +18°C° 0.2 mm 1 mps 758 mmHg 89%
20:00 +16°C° 0.1 mm 1 mps 758 mmHg 90%
21:00 +16°C° 0.1 mm 1 mps 758 mmHg 91%
22:00 +15°C° 0.1 mm 1 mps 758 mmHg 92%
23:00 +15°C° 0.2 mm 1 mps 758 mmHg 93%

5 August, Thursday

Time Temperature Precipitation Wind Pressure Humidity
00:00 +15°C° 0.2 mm 1 mps 758 mmHg 94%
01:00 +14°C° 0.2 mm 0 mps 758 mmHg 94%
02:00 +14°C° 0.2 mm 1 mps 758 mmHg 95%
03:00 +14°C° 0.2 mm 1 mps 757 mmHg 95%
04:00 +14°C° 0.2 mm 1 mps 757 mmHg 96%
05:00 +14°C° 0 mm 1 mps 757 mmHg 94%
06:00 +15°C° 0 mm 1 mps 757 mmHg 93%
07:00 +15°C° 0 mm 1 mps 757 mmHg 91%
08:00 +18°C° 0 mm 1 mps 757 mmHg 86%
09:00 +19°C° 0 mm 1 mps 757 mmHg 81%
10:00 +20°C° 0 mm 1 mps 757 mmHg 75%
11:00 +21°C° 0.2 mm 1 mps 756 mmHg 71%
12:00 +22°C° 0.2 mm 1 mps 756 mmHg 67%
13:00 +23°C° 0.2 mm 1 mps 756 mmHg 63%
14:00 +23°C° 0 mm 1 mps 755 mmHg 60%
15:00 +24°C° 0 mm 1 mps 755 mmHg 57%
16:00 +24°C° 0 mm 1 mps 755 mmHg 55%
17:00 +23°C° 0 mm 1 mps 754 mmHg 60%
18:00 +21°C° 0 mm 2 mps 754 mmHg 65%
19:00 +21°C° 0 mm 2 mps 754 mmHg 71%
20:00 +20°C° 0 mm 2 mps 754 mmHg 74%
21:00 +19°C° 0 mm 2 mps 754 mmHg 77%
22:00 +18°C° 0 mm 2 mps 754 mmHg 80%
23:00 +17°C° 0 mm 3 mps 753 mmHg 84%

6 August, Friday

Time Temperature Precipitation Wind Pressure Humidity
00:00 +16°C° 0 mm 3 mps 753 mmHg 88%
01:00 +16°C° 0 mm 3 mps 753 mmHg 92%
02:00 +16°C° 0 mm 3 mps 753 mmHg 93%
03:00 +14°C° 0 mm 3 mps 753 mmHg 94%
04:00 +14°C° 0 mm 3 mps 753 mmHg 96%
05:00 +16°C° 0 mm 3 mps 753 mmHg 93%
06:00 +16°C° 0 mm 3 mps 753 mmHg 90%
07:00 +17°C° 0 mm 4 mps 753 mmHg 87%
08:00 +18°C° 0.1 mm 4 mps 753 mmHg 83%
09:00 +19°C° 0.1 mm 5 mps 753 mmHg 78%
10:00 +20°C° 0.1 mm 5 mps 753 mmHg 74%
11:00 +21°C° 0.4 mm 5 mps 753 mmHg 72%
12:00 +21°C° 0.4 mm 6 mps 753 mmHg 69%
13:00 +22°C° 0.4 mm 6 mps 753 mmHg 67%
14:00 +22°C° 0.2 mm 6 mps 753 mmHg 67%
15:00 +21°C° 0.2 mm 6 mps 753 mmHg 68%
16:00 +21°C° 0.2 mm 6 mps 753 mmHg 68%
17:00 +21°C° 0.2 mm 6 mps 753 mmHg 73%
18:00 +20°C° 0.2 mm 5 mps 754 mmHg 77%
19:00 +19°C° 0.2 mm 4 mps 754 mmHg 81%
20:00 +18°C° 0 mm 4 mps 754 mmHg 84%
21:00 +17°C° 0 mm 3 mps 754 mmHg 88%
22:00 +16°C° 0 mm 3 mps 755 mmHg 92%
23:00 +16°C° 0 mm 3 mps 755 mmHg 92%

7 August, Saturday

Time Temperature Precipitation Wind Pressure Humidity
00:00 +14°C° 0 mm 3 mps 755 mmHg 93%
01:00 +14°C° 0 mm 3 mps 755 mmHg 93%
02:00 +14°C° 0 mm 3 mps 755 mmHg 93%
03:00 +13°C° 0 mm 3 mps 755 mmHg 94%
04:00 +13°C° 0 mm 3 mps 755 mmHg 94%
05:00 +14°C° 0 mm 3 mps 755 mmHg 91%
06:00 +16°C° 0 mm 3 mps 755 mmHg 89%
07:00 +16°C° 0 mm 3 mps 755 mmHg 86%
08:00 +18°C° 0.1 mm 3 mps 755 mmHg 79%
09:00 +19°C° 0.1 mm 4 mps 755 mmHg 71%
10:00 +21°C° 0.1 mm 4 mps 754 mmHg 63%
11:00 +21°C° 0.1 mm 4 mps 754 mmHg 61%
12:00 +22°C° 0.1 mm 4 mps 754 mmHg 59%
13:00 +22°C° 0.1 mm 4 mps 754 mmHg 57%
14:00 +22°C° 0.1 mm 4 mps 754 mmHg 57%
15:00 +22°C° 0.1 mm 3 mps 754 mmHg 58%
16:00 +22°C° 0.1 mm 3 mps 754 mmHg 59%
17:00 +21°C° 0 mm 3 mps 754 mmHg 64%
18:00 +20°C° 0 mm 2 mps 755 mmHg 69%
19:00 +18°C° 0 mm 2 mps 755 mmHg 75%
20:00 +18°C° 0 mm 2 mps 755 mmHg 74%
21:00 +19°C° 0 mm 1 mps 755 mmHg 74%
22:00 +18°C° 0 mm 1 mps 755 mmHg 73%
23:00 +18°C° 0 mm 1 mps 756 mmHg 77%
Show more